Le Raizet Airport, Guadeloupe

12:43 AM AST on June 18, 2018 (GMT -0400)
Le Raizet

Weather History for TFFR - October, 2017

Change the Weather History Date:

Saturday, October 14, 2017

  Actual Average Record
Temperature  
Mean Temperature 80 °F -  
Max Temperature 84 °F 85 °F 91 °F (2015)
Min Temperature 75 °F 72 °F 73 °F (1996)
Cooling Degree Days 14    
Growing Degree Days 30 (Base 50)    
Moisture  
Dew Point 73 °F    
Average Humidity 79    
Maximum Humidity 89    
Minimum Humidity 59    
Precipitation  
Precipitation 0.04 in 0.29 in - ()
Sea Level Pressure  
Sea Level Pressure 29.87 in    
Wind  
Wind Speed 5 mph ()    
Max Wind Speed 18 mph    
Max Gust Speed 25 mph    
Visibility 7.0 miles    
Events Fog , Rain    
Averages and records for this station are not official NWS values.
T = Trace of Precipitation, MM = Missing Value Source: Averaged Metar Reports

Daily Weather History Graph

Daily Weather History Graph

Search for Another Location

Airport or City:

Astronomy

Oct. 14, 2017 Rise Set
Actual Time 5:58 AM AST 5:45 PM AST
Civil Twilight 5:36 AM AST 6:07 PM AST
Nautical Twilight 5:11 AM AST 6:32 PM AST
Astronomical Twilight 4:46 AM AST 6:57 PM AST
Moon 1:15 AM AST (10/14) 2:19 PM AST (10/14)
Length of Visible Light 12h 30m
Length of Day
11h 47m
Waning Crescent, 27% of the Moon is Illuminated
Oct 14
Waning Crescent
Oct 19
New
Oct 27
First Quarter
Nov 4
Full
Nov 10
Last Quarter

Hourly Weather History & Observations

Time (AST) Temp. Heat Index Dew Point Humidity Pressure Visibility Wind Dir Wind Speed Gust Speed Precip Events Conditions
12:00 AM 78.8 °F - 73.4 °F 83% 29.83 in 6.2 mi WNW 3.5 mph - N/A   Partly Cloudy
12:30 AM 77.0 °F - 73.4 °F 89% 29.83 in 6.2 mi Variable 2.3 mph - N/A   Partly Cloudy
1:00 AM 77.0 °F - 73.4 °F 89% 29.83 in 6.2 mi SW 2.3 mph - N/A   Partly Cloudy
1:30 AM 77.0 °F - 73.4 °F 89% 29.80 in 6.2 mi WSW 3.5 mph - N/A   Partly Cloudy
2:00 AM 77 °F - 74 °F 87% 29.82 in 16 mi West 2.3 mph - -   Clear
2:00 AM 77.0 °F - 73.4 °F 89% 29.80 in 6.2 mi West 2.3 mph - N/A   Scattered Clouds
2:30 AM 77.0 °F - 73.4 °F 89% 29.80 in 6.2 mi West 2.3 mph - N/A   Scattered Clouds
3:00 AM 77.0 °F - 73.4 °F 89% 29.80 in 6.2 mi SSW 1.2 mph - N/A   Mostly Cloudy
3:30 AM 77.0 °F - 73.4 °F 89% 29.80 in 6.2 mi Calm Calm - N/A   Scattered Clouds
4:00 AM 77.0 °F - 73.4 °F 89% 29.80 in 6.2 mi SW 3.5 mph - N/A   Partly Cloudy
4:30 AM 77.0 °F - 73.4 °F 89% 29.80 in 6.2 mi Calm Calm - N/A   Partly Cloudy
5:00 AM 77 °F - 74 °F 87% 29.82 in 19 mi Calm Calm - -   Clear
5:00 AM 77.0 °F - 73.4 °F 89% 29.80 in 6.2 mi Calm Calm - N/A   Mostly Cloudy
5:30 AM 77.0 °F - 73.4 °F 89% 29.80 in 6.2 mi NW 2.3 mph - N/A   Mostly Cloudy
6:00 AM 77.0 °F - 73.4 °F 89% 29.83 in 6.2 mi Variable 2.3 mph - N/A   Overcast
6:30 AM 77.0 °F - 73.4 °F 89% 29.83 in 6.2 mi Variable 2.3 mph - N/A   Mostly Cloudy
7:00 AM 78.8 °F - 75.2 °F 89% 29.83 in 6.2 mi Variable 3.5 mph - N/A   Unknown
7:30 AM 80.6 °F 86.2 °F 75.2 °F 84% 29.86 in 6.2 mi Calm Calm - N/A   Mostly Cloudy
8:00 AM 82 °F - 75 °F 73% 29.88 in 37 mi NNE 4.6 mph - -   Clear
8:00 AM 82.4 °F 89.5 °F 75.2 °F 79% 29.86 in 6.2 mi NNE 4.6 mph - N/A   Mostly Cloudy
8:30 AM 80.6 °F 85.4 °F 73.4 °F 79% 29.89 in 6.2 mi ENE 4.6 mph - N/A   Mostly Cloudy
9:00 AM 82.4 °F 88.2 °F 73.4 °F 74% 29.89 in - Variable 2.3 mph - N/A   Scattered Clouds
9:30 AM 82.4 °F 88.2 °F 73.4 °F 74% 29.89 in 6.2 mi Variable 2.3 mph - N/A   Partly Cloudy
10:00 AM 80.6 °F 86.2 °F 75.2 °F 84% 29.92 in 1.0 mi Variable 3.5 mph - N/A Fog , Rain Light Rain
10:30 AM 82.4 °F 89.5 °F 75.2 °F 79% 29.92 in 6.2 mi South 8.1 mph - N/A   Mostly Cloudy
11:00 AM 82 °F - 74 °F 72% 29.91 in 22 mi South 12.7 mph - -   Clear
11:00 AM 82.4 °F 89.5 °F 75.2 °F 79% 29.89 in 6.2 mi South 12.7 mph - N/A   Mostly Cloudy
11:30 AM 84.2 °F 90.9 °F 73.4 °F 70% 29.89 in 6.2 mi South 10.4 mph - N/A   Unknown
12:00 PM 84.2 °F 90.9 °F 73.4 °F 70% 29.86 in 6.2 mi South 11.5 mph - N/A   Unknown
12:30 PM 84.2 °F 90.9 °F 73.4 °F 70% 29.86 in - SSE 12.7 mph - N/A   Clear
1:00 PM 84.2 °F 90.9 °F 73.4 °F 70% 29.86 in 6.2 mi SSE 15.0 mph - N/A   Unknown
1:30 PM 84.2 °F 90.9 °F 73.4 °F 70% 29.86 in 6.2 mi SSE 16.1 mph - N/A   Scattered Clouds
2:00 PM 84 °F - 73 °F 62% 29.86 in 19 mi SE 13.8 mph - -   Clear
2:00 PM 84.2 °F 90.9 °F 73.4 °F 70% 29.83 in 6.2 mi SE 13.8 mph - N/A   Mostly Cloudy
2:30 PM 84.2 °F 90.9 °F 73.4 °F 70% 29.83 in 6.2 mi SSE 11.5 mph - N/A   Scattered Clouds
3:00 PM 84.2 °F 92.3 °F 75.2 °F 74% 29.86 in 6.2 mi SSE 12.7 mph - N/A   Mostly Cloudy
3:30 PM 84.2 °F 90.9 °F 73.4 °F 70% 29.86 in 6.2 mi SE 11.5 mph - N/A   Unknown
4:00 PM 84.2 °F 92.3 °F 75.2 °F 74% 29.86 in 6.2 mi SE 9.2 mph - N/A   Mostly Cloudy
4:30 PM 78.8 °F - 69.8 °F 74% 29.86 in 6.2 mi SE 18.4 mph - N/A   Mostly Cloudy
5:00 PM 80 °F - 68 °F 59% 29.88 in 16 mi SE 11.5 mph - -   Clear
5:00 PM 80.6 °F 83.2 °F 68.0 °F 65% 29.86 in 6.2 mi SE 11.5 mph 24.2 mph N/A   Unknown
5:30 PM 78.8 °F - 68.0 °F 69% 29.86 in 6.2 mi SSE 11.5 mph 25.3 mph N/A   Unknown
6:00 PM 78.8 °F - 68.0 °F 69% 29.86 in 6.2 mi SE 9.2 mph - N/A   Unknown
6:30 PM 78.8 °F - 71.6 °F 78% 29.89 in 6.2 mi SE 11.5 mph - N/A   Unknown
7:00 PM 78.8 °F - 71.6 °F 78% 29.89 in 6.2 mi SE 9.2 mph - N/A   Overcast
7:30 PM 78.8 °F - 73.4 °F 83% 29.92 in 6.2 mi South 8.1 mph - N/A   Mostly Cloudy
8:00 PM 80 °F - 73 °F 73% 29.94 in 28 mi SSE 11.5 mph - -   Clear
8:00 PM 80.6 °F 85.4 °F 73.4 °F 79% 29.92 in 6.2 mi SSE 11.5 mph - N/A   Overcast
8:30 PM 80.6 °F 85.4 °F 73.4 °F 79% 29.95 in 6.2 mi SSE 9.2 mph - N/A   Overcast
9:00 PM 80.6 °F 85.4 °F 73.4 °F 79% 29.95 in 6.2 mi SSE 8.1 mph - N/A   Mostly Cloudy
9:30 PM 80.6 °F 85.4 °F 73.4 °F 79% 29.95 in 6.2 mi SSE 6.9 mph - N/A   Mostly Cloudy
10:00 PM 80.6 °F 85.4 °F 73.4 °F 79% 29.95 in 6.2 mi SE 8.1 mph - N/A   Scattered Clouds
10:30 PM 80.6 °F 84.6 °F 71.6 °F 74% 29.95 in 6.2 mi SE 10.4 mph - N/A   Mostly Cloudy
11:00 PM 80.6 °F 85.4 °F 73.4 °F 79% 29.95 in 6.2 mi SE 12.7 mph - N/A   Mostly Cloudy
11:30 PM 80.6 °F 85.4 °F 73.4 °F 79% 29.95 in 6.2 mi SSE 9.2 mph - N/A   Overcast